Location: ROBOsky.com Wild Flower Ridge Observatory
(43.9736°N, 79.9739°W)
Time: 04:44:48
(UTC-04:00)

USA 129 - Visible Passes

Search period start: 16 April 2014 00:00
Search period end: 26 April 2014 00:00
Orbit: 243 x 683 km, 97.5° (Epoch: 11 April)

Date Brightness Start Highest point End Pass type
(mag) Time Alt. Az. Time Alt. Az. Time Alt. Az.
16 Apr 4.1 21:31:38 26° ESE 21:33:35 41° ENE 21:37:56 10° N visible
16 Apr 5.6 23:05:30 19° WSW 23:06:40 21° W 23:10:09 10° NW visible
17 Apr 5.1 20:59:41 13° ESE 21:02:24 21° ENE 21:05:53 10° NNE visible
17 Apr 4.5 22:33:33 34° SW 22:34:56 44° W 22:39:23 10° NNW visible
18 Apr 3.6 22:01:32 37° SSE 22:03:18 85° ENE 22:08:00 10° N visible
18 Apr 6.4 23:35:51 10° W 23:36:52 11° W 23:37:54 10° WNW visible
19 Apr 4.3 21:29:25 22° SE 21:31:47 40° ENE 21:36:09 10° N visible
19 Apr 5.6 23:03:16 19° WSW 23:04:48 23° W 23:08:29 10° NW visible
20 Apr 5.2 20:57:14 11° ESE 21:00:20 21° ENE 21:03:48 10° NNE visible
20 Apr 4.4 22:31:05 31° SSW 22:32:50 48° W 22:37:22 10° NNW visible
21 Apr 3.6 21:58:48 31° SSE 22:00:58 80° ENE 22:05:41 10° N visible
21 Apr 6.3 23:32:42 10° WSW 23:34:25 12° W 23:36:10 10° WNW visible
22 Apr 4.4 21:26:27 19° SE 21:29:12 38° ENE 21:33:32 10° N visible
22 Apr 5.5 23:00:17 20° SW 23:02:08 25° W 23:06:00 10° NW visible
23 Apr 5.3 20:54:12 10° ESE 20:57:30 20° ENE 21:00:50 10° NNE visible
23 Apr 4.3 22:27:51 29° SSW 22:29:56 53° W 22:34:32 10° NNW visible
24 Apr 3.7 21:55:19 27° SSE 21:57:51 73° ENE 22:02:31 10° N visible
24 Apr 6.3 23:29:09 11° WSW 23:31:10 13° W 23:33:25 10° WNW visible
25 Apr 4.5 21:22:43 16° SE 21:25:49 35° ENE 21:30:03 10° N visible
25 Apr 5.4 22:56:33 20° SW 22:58:40 28° W 23:02:40 10° NW visible
